This demonstration page uses our WeatherBlox Daily Observations layout. Learn more.

Left ArrowRight Arrow

39.12711, -84.51439

Hourly Observations for January 1, 2022

Temp ( °F °C ) Dew Point ( °F °C ) Humidity (%) Winds ( mph kmh ) Pressure ( in mb ) Visibility ( mi km ) Precip ( " mm )
12:53 am 00:53 Cloudy with Light Rain 64 17.8 58 14.4 81 81 SSW 15 24 29.72 1006 10 16 0.00 0.00
1:53 am 01:53 Cloudy 62 16.7 59 15 90 90 S 13 20 29.70 1006 10 16 0.00 0.00
2:53 am 02:53 Cloudy 62 16.7 59 15 90 90 SW 7 11 29.71 1006 10 16 0.00 0.00
3:53 am 03:53 Cloudy 61 16.1 58 14.4 90 90 S 9 15 29.69 1006 10 16 0.01 0.25
4:53 am 04:53 Cloudy with Rain 59 15 58 14.4 96 96 SSW 6 9 29.70 1006 5 8 0.01 0.25
5:53 am 05:53 Cloudy with Rain 59 15 59 15 100 100 SW 9 15 29.73 1007 5 8 0.07 1.78
6:53 am 06:53 Cloudy with Light Rain 59 15 58 14.4 96 96 S 6 9 29.71 1006 5 8 0.04 1.02
7:53 am 07:53 Cloudy with Light Rain 57 13.9 57 13.9 100 100 SW 8 13 29.72 1006 5 8 0.02 0.51
8:53 am 08:53 Cloudy with Light Rain 59 15 58 14.4 96 96 S 10 17 29.70 1006 10 16 0.02 0.51
9:53 am 09:53 Cloudy with Light Rain 58 14.4 58 14.4 100 100 S 3 6 29.71 1006 4 6 0.04 1.02
10:04 am 10:04 Cloudy with Light Rain 58 14.4 58 14.4 100 100 SSW 8 13 29.74 1007 5 8 0.00 0.00
10:13 am 10:13 Cloudy with Light Rain 58 14.4 58 14.4 100 100 SSW 3 6 29.73 1007 4 6 0.01 0.25
10:36 am 10:36 Cloudy with Light Rain 58 14.4 58 14.4 100 100 S 6 9 29.72 1006 5 8 0.03 0.76
10:53 am 10:53 Cloudy with Rain 58 14.4 58 14.4 100 100 S 9 15 29.70 1006 5 8 0.05 1.27
11:53 am 11:53 Cloudy with Light Rain 58 14.4 58 14.4 100 100 Calm 29.66 1004 4 6 0.05 1.27
12:53 pm 12:53 Cloudy with Heavy Rain 57 13.9 57 13.9 100 100 NW 10 17 29.65 1004 3 5 0.11 2.79
1:53 pm 13:53 Cloudy with Rain 55 12.8 53 11.7 93 93 VRB 7 11 29.65 1004 3 5 0.15 3.81
2:53 pm 14:53 Cloudy with Light Rain 53 11.7 52 11.1 96 96 N 9 15 29.64 1004 3 5 0.17 4.32
3:53 pm 15:53 Cloudy with Light Rain 53 11.7 52 11.1 96 96 N 3 6 29.64 1004 3 5 0.07 1.78
4:53 pm 16:53 Cloudy with Light Rain 52 11.1 52 11.1 100 100 SSE 3 6 29.64 1004 5 8 0.05 1.27
5:53 pm 17:53 Cloudy with Light Rain 52 11.1 52 11.1 100 100 SW 6 9 29.64 1004 7 11 0.04 1.02
6:53 pm 18:53 Cloudy with Light Rain 52 11.1 52 11.1 100 100 W 3 6 29.65 1004 4 6 0.03 0.76
7:00 pm 19:00 Cloudy with Light Rain 52 11.1 52 11.1 100 100 Calm 29.65 1004 10 16 0.00 0.00
7:32 pm 19:32 Cloudy with Light Rain 52 11.1 52 11.1 100 100 S 10 17 29.62 1003 10 16 0.01 0.25
7:39 pm 19:39 Cloudy with Light Rain 53 11.7 52 11.1 96 96 SSW 12 19 29.62 1003 10 16 0.01 0.25
7:53 pm 19:53 Cloudy with Light Rain 53 11.7 53 11.7 100 100 WSW 6 9 29.63 1003 10 16 0.02 0.51
8:53 pm 20:53 Cloudy with Light Rain 54 12.2 53 11.7 97 97 W 7 11 29.67 1005 9 14 0.05 1.27
9:53 pm 21:53 Cloudy with Light Rain 53 11.7 53 11.7 100 100 Calm 29.63 1003 2 3 0.03 0.76
9:56 pm 21:56 Cloudy with Light Rain 53 11.7 53 11.7 100 100 ESE 3 6 29.62 1003 2 3 0.00 0.00
10:20 pm 22:20 Cloudy with Mist and Fog 52 11.1 52 11.1 100 100 NW 6 9 29.64 1004 2 3 0.00 0.00
10:50 pm 22:50 Cloudy with Light Rain 54 12 54 12 100 100 NNW 5 7 29.63 1004 3 5 0.02 0.51
10:53 pm 22:53 Cloudy with Light Rain 53 11.7 53 11.7 100 100 N 7 11 29.62 1003 4 6 0.02 0.51
11:08 pm 23:08 Cloudy 52 11.1 51 10.6 97 97 NNE 3 6 29.64 1004 7 11 0.00 0.00
11:34 pm 23:34 Cloudy 51 10.6 50 10 96 96 NNW 6 9 29.65 1004 10 16 0.00 0.00
11:43 pm 23:43 Cloudy 51 10.6 50 10 96 96 NW 3 6 29.66 1004 9 14 0.00 0.00
11:53 pm 23:53 Cloudy with Light Rain 51 10.6 50 10 96 96 NW 3 6 29.65 1004 7 11 0.00 0.00

Powered by AerisWeather